Find Starlink 31298

NORAD ID: 59167 Int'l Des: 2024-044 Owner: SPXS Country: US Constellation: starlink operational
LEOCIRCULAR

Live-Position

3D-Globus wird geladen...

Über Starlink 31298

Beschreibung wird geladen...

Nächste Überflüge

Passes for default location (London). Set your location on the main map for personalized predictions.

Höhenverlauf

Loading altitude history...

Zweizeiliger Elementsatz

1 59167U 24044R 26123.14262222 -.00002780 00000-0 -91512-4 0 9998
2 59167 43.0001 159.4883 0001105 277.3321 82.7405 15.27591938121895
Epoch: 3. Mai 2026 • Age: 10 hours

Aktueller Status

Höhe 483.4 km
Geschwindigkeit 7.63 km/s
Subsatellitenpunkt 24.70°N, 115.6°W
Startdatum 4. März 2024
Alter 2.1 years
Typ internet

Technische Details

Klassifizierung Payload
Masse 730.00 kg
Trockenmasse 700.00 kg
Gesamtmasse 730.00 kg
Länge 0.30 m
Durchmesser 4.10 m
Spannweite 29.00 m
Form Box + pan
Hersteller SPXS
Bus-Typ Starlink V2M
Phasenstatus In Orbit
Besitzer/Staat SPXS/US

Most Searched